Location: Chippewa Lake
(41.0698°N, 81.9010°W)
Time: 21:51:16
(UTC+00:00)

UNK - Pass Details

Date: 09 May 2021
Orbit: 666 x 686 km, 98.2° (Epoch: 16 June)

Event Time Altitude Azimuth Distance (km) Brightness Sun altitude
Exits shadow 07:33:18 64° 287° (WNW) 749 3.8 -24.3°
Drops below altitude 10° 07:37:32 10° 341° (NNW) 2,107 6.7 -23.8°
Sets 07:39:47 0° 345° (NNW) 3,023 7.6 -23.6°
